When you browse on this site, cookies collect data to enhance your experience and personalize the content and advertising you see.
Visit our Privacy Policy to learn more. By continuing to use the site, you agree to this use of cookies and data.
  • In Germany
  • List of Countries
  • For 7 days
  • Water Temperature
  • Weather Map
  • Weather Widgets
  • user-avatar
    Login

    Hourly Weather Nikolo-Pavlovskoe

    Today, 20 October, Sunday

    Time Temperature Precipitation Wind Pressure Humidity
    00:00 -7°C° 0 mm 1 mps 755 mmHg 87%
    01:00 -8°C° 0 mm 1 mps 755 mmHg 88%
    02:00 -8°C° 0 mm 1 mps 755 mmHg 89%
    03:00 -8°C° 0 mm 1 mps 755 mmHg 89%
    04:00 -8°C° 0 mm 1 mps 755 mmHg 90%
    05:00 -9°C° 0 mm 2 mps 755 mmHg 89%
    06:00 -9°C° 0 mm 2 mps 755 mmHg 89%
    07:00 -9°C° 0 mm 2 mps 755 mmHg 89%
    08:00 -8°C° 0 mm 2 mps 755 mmHg 81%
    09:00 -6°C° 0 mm 2 mps 755 mmHg 73%
    10:00 -5°C° 0 mm 3 mps 755 mmHg 66%
    11:00 -4°C° 0 mm 3 mps 754 mmHg 63%
    12:00 -2°C° 0 mm 3 mps 754 mmHg 61%
    13:00 -1°C° 0 mm 3 mps 753 mmHg 58%
    14:00 -1°C° 0 mm 3 mps 753 mmHg 63%
    15:00 -1°C° 0 mm 3 mps 753 mmHg 68%
    16:00 -2°C° 0 mm 2 mps 753 mmHg 74%
    17:00 -2°C° 0 mm 3 mps 752 mmHg 76%
    18:00 -2°C° 0 mm 3 mps 752 mmHg 79%
    19:00 -4°C° 0 mm 3 mps 752 mmHg 82%
    20:00 -2°C° 0 mm 3 mps 751 mmHg 82%
    21:00 -3°C° 0 mm 4 mps 751 mmHg 81%
    22:00 -3°C° 0 mm 4 mps 750 mmHg 81%
    23:00 -3°C° 0 mm 4 mps 750 mmHg 82%

    Tomorrow, 21 October, Monday

    Time Temperature Precipitation Wind Pressure Humidity
    00:00 -2°C° 0 mm 4 mps 750 mmHg 82%
    01:00 -2°C° 0 mm 5 mps 749 mmHg 83%
    02:00 -2°C° 0.3 mm 5 mps 749 mmHg 85%
    03:00 -1°C° 0.3 mm 5 mps 749 mmHg 87%
    04:00 -1°C° 0.3 mm 5 mps 749 mmHg 89%
    05:00 -1°C° 0.1 mm 4 mps 748 mmHg 89%
    06:00 -1°C° 0.1 mm 4 mps 748 mmHg 88%
    07:00 0°C° 0.1 mm 3 mps 747 mmHg 88%
    08:00 0°C° 0.1 mm 4 mps 747 mmHg 88%
    09:00 0°C° 0.1 mm 4 mps 747 mmHg 88%
    10:00 0°C° 0.1 mm 4 mps 747 mmHg 87%
    11:00 0°C° 0.2 mm 4 mps 747 mmHg 88%
    12:00 0°C° 0.2 mm 4 mps 747 mmHg 89%
    13:00 0°C° 0.2 mm 4 mps 746 mmHg 90%
    14:00 +1°C° 0.1 mm 4 mps 746 mmHg 90%
    15:00 +2°C° 0.1 mm 3 mps 746 mmHg 90%
    16:00 +2°C° 0.1 mm 3 mps 746 mmHg 91%
    17:00 +2°C° 0 mm 3 mps 745 mmHg 92%
    18:00 +1°C° 0 mm 3 mps 745 mmHg 93%
    19:00 +1°C° 0 mm 3 mps 745 mmHg 94%
    20:00 0°C° 0.1 mm 4 mps 744 mmHg 94%
    21:00 +1°C° 0.1 mm 4 mps 743 mmHg 93%
    22:00 +1°C° 0.1 mm 5 mps 742 mmHg 92%
    23:00 +1°C° 0.1 mm 5 mps 741 mmHg 91%

    Day after tomorrow, 22 October, Tuesday

    Time Temperature Precipitation Wind Pressure Humidity
    00:00 +2°C° 0.1 mm 6 mps 740 mmHg 91%
    01:00 +2°C° 0.1 mm 6 mps 739 mmHg 90%
    02:00 +2°C° 0.3 mm 6 mps 738 mmHg 89%
    03:00 +3°C° 0.3 mm 6 mps 737 mmHg 89%
    04:00 +3°C° 0.3 mm 7 mps 737 mmHg 88%
    05:00 +3°C° 0.5 mm 7 mps 736 mmHg 88%
    06:00 +4°C° 0.5 mm 7 mps 735 mmHg 88%
    07:00 +4°C° 0.5 mm 7 mps 734 mmHg 88%
    08:00 +4°C° 0.1 mm 7 mps 734 mmHg 85%
    09:00 +4°C° 0.1 mm 7 mps 734 mmHg 82%
    10:00 +4°C° 0.1 mm 7 mps 734 mmHg 80%
    11:00 +3°C° 0 mm 6 mps 735 mmHg 81%
    12:00 +3°C° 0 mm 6 mps 735 mmHg 82%
    13:00 +3°C° 0 mm 6 mps 736 mmHg 83%
    14:00 +2°C° 0 mm 6 mps 736 mmHg 85%
    15:00 +2°C° 0 mm 6 mps 737 mmHg 87%
    16:00 +2°C° 0 mm 5 mps 737 mmHg 88%
    17:00 +1°C° 0 mm 5 mps 738 mmHg 87%
    18:00 +1°C° 0 mm 5 mps 738 mmHg 87%
    19:00 +1°C° 0 mm 4 mps 739 mmHg 86%
    20:00 +1°C° 0 mm 4 mps 739 mmHg 85%
    21:00 0°C° 0 mm 4 mps 740 mmHg 84%
    22:00 0°C° 0 mm 4 mps 740 mmHg 83%
    23:00 0°C° 0 mm 4 mps 740 mmHg 83%

    23 October, Wednesday

    Time Temperature Precipitation Wind Pressure Humidity
    00:00 -1°C° 0 mm 4 mps 741 mmHg 83%
    01:00 -1°C° 0 mm 4 mps 741 mmHg 83%
    02:00 -1°C° 0 mm 3 mps 741 mmHg 85%
    03:00 -2°C° 0 mm 3 mps 742 mmHg 86%
    04:00 -4°C° 0 mm 3 mps 742 mmHg 87%
    05:00 -4°C° 0 mm 3 mps 743 mmHg 87%
    06:00 -5°C° 0 mm 3 mps 743 mmHg 88%
    07:00 -5°C° 0 mm 3 mps 743 mmHg 88%
    08:00 -4°C° 0 mm 3 mps 743 mmHg 84%
    09:00 -4°C° 0 mm 3 mps 744 mmHg 79%
    10:00 -2°C° 0 mm 3 mps 744 mmHg 75%
    11:00 -1°C° 0 mm 3 mps 744 mmHg 73%
    12:00 -1°C° 0 mm 3 mps 744 mmHg 71%
    13:00 0°C° 0 mm 3 mps 743 mmHg 69%
    14:00 0°C° 0 mm 3 mps 743 mmHg 72%
    15:00 -1°C° 0 mm 3 mps 743 mmHg 74%
    16:00 -1°C° 0 mm 3 mps 743 mmHg 77%
    17:00 -2°C° 0 mm 3 mps 743 mmHg 78%
    18:00 -2°C° 0 mm 3 mps 742 mmHg 80%
    19:00 -2°C° 0 mm 3 mps 742 mmHg 81%
    20:00 -3°C° 0 mm 4 mps 742 mmHg 80%
    21:00 -3°C° 0 mm 4 mps 741 mmHg 78%
    22:00 -2°C° 0 mm 5 mps 741 mmHg 77%
    23:00 -2°C° 0 mm 5 mps 740 mmHg 80%

    24 October, Thursday

    Time Temperature Precipitation Wind Pressure Humidity
    00:00 -1°C° 0 mm 5 mps 740 mmHg 83%
    01:00 0°C° 0 mm 5 mps 739 mmHg 86%
    02:00 +1°C° 0 mm 5 mps 739 mmHg 87%
    03:00 +1°C° 0 mm 5 mps 738 mmHg 88%
    04:00 +2°C° 0 mm 5 mps 738 mmHg 89%
    05:00 +2°C° 0 mm 5 mps 738 mmHg 89%
    06:00 +2°C° 0 mm 5 mps 737 mmHg 89%
    07:00 +3°C° 0 mm 5 mps 737 mmHg 89%
    08:00 +3°C° 0 mm 5 mps 737 mmHg 88%
    09:00 +5°C° 0 mm 5 mps 737 mmHg 87%
    10:00 +4°C° 0 mm 6 mps 737 mmHg 86%
    11:00 +6°C° 0 mm 5 mps 737 mmHg 86%
    12:00 +6°C° 0 mm 5 mps 737 mmHg 85%
    13:00 +6°C° 0 mm 5 mps 737 mmHg 84%
    14:00 +6°C° 0 mm 5 mps 737 mmHg 86%
    15:00 +5°C° 0 mm 5 mps 737 mmHg 87%
    16:00 +5°C° 0 mm 4 mps 737 mmHg 89%
    17:00 +5°C° 0 mm 4 mps 737 mmHg 90%
    18:00 +4°C° 0 mm 3 mps 738 mmHg 91%
    19:00 +4°C° 0 mm 3 mps 738 mmHg 92%
    20:00 +4°C° 0 mm 3 mps 738 mmHg 92%
    21:00 +4°C° 0 mm 3 mps 739 mmHg 92%
    22:00 +4°C° 0 mm 2 mps 739 mmHg 93%
    23:00 +3°C° 0 mm 3 mps 739 mmHg 92%

    25 October, Friday

    Time Temperature Precipitation Wind Pressure Humidity
    00:00 +3°C° 0 mm 3 mps 739 mmHg 91%
    01:00 +3°C° 0 mm 3 mps 739 mmHg 91%
    02:00 +3°C° 0 mm 3 mps 740 mmHg 92%
    03:00 +4°C° 0 mm 2 mps 740 mmHg 93%
    04:00 +3°C° 0 mm 2 mps 740 mmHg 94%
    05:00 +2°C° 0 mm 3 mps 740 mmHg 94%
    06:00 +2°C° 0 mm 3 mps 741 mmHg 94%
    07:00 +2°C° 0 mm 3 mps 741 mmHg 94%
    08:00 +3°C° 0 mm 3 mps 741 mmHg 89%
    09:00 +4°C° 0 mm 3 mps 741 mmHg 85%
    10:00 +5°C° 0 mm 3 mps 741 mmHg 81%
    11:00 +5°C° 0 mm 3 mps 740 mmHg 81%
    12:00 +6°C° 0 mm 4 mps 740 mmHg 82%
    13:00 +7°C° 0 mm 4 mps 740 mmHg 82%
    14:00 +6°C° 0 mm 4 mps 740 mmHg 84%
    15:00 +6°C° 0 mm 4 mps 740 mmHg 86%
    16:00 +6°C° 0 mm 4 mps 739 mmHg 88%
    17:00 +6°C° 0 mm 4 mps 739 mmHg 86%
    18:00 +5°C° 0 mm 4 mps 740 mmHg 85%
    19:00 +5°C° 0 mm 5 mps 740 mmHg 83%
    20:00 +5°C° 0 mm 4 mps 740 mmHg 83%
    21:00 +5°C° 0 mm 4 mps 740 mmHg 83%
    22:00 +4°C° 0 mm 4 mps 740 mmHg 83%
    23:00 +4°C° 0 mm 4 mps 740 mmHg 84%
    Show more